Location: Napier
(39.4830°S, 176.9170°E)
Time: 02:58:47
(UTC+12:00)

Cosmos 1933 - Pass Details

Date: 15 August 2020
Orbit: 547 x 563 km, 82.5° (Epoch: 19 September)

Event Time Altitude Azimuth Distance (km) Brightness Sun altitude
Rises 19:42:47 0° 346° (NNW) 2,737 7.0 -25.3°
Reaches altitude 10° 19:44:57 10° 342° (NNW) 1,848 6.1 -25.7°
Enters shadow 19:47:52 42° 319° (NW) 804 4.3 -26.3°
